Location: Bakhuizen
(52.8696°N, 5.4575°E)
Time: 09:04:00
(UTC+00:00)

Landsat 7 - Pass Details

Date: 11 May 2021
Orbit: 701 x 703 km, 98.0° (Epoch: 15 June)

Event Time Altitude Azimuth Distance (km) Brightness Sun altitude
Exits shadow 20:22:51 - 170° (S) 2,701 6.3 -7.9°
Reaches altitude 10° 20:24:10 10° 172° (S) 2,168 5.9 -8.0°
Maximum altitude 20:28:55 72° 257° (WSW) 745 4.1 -8.5°
Drops below altitude 10° 20:33:43 10° 342° (NNW) 2,185 7.5 -9.0°
Sets 20:35:59 0° 345° (NNW) 3,107 8.4 -9.2°
